OAL929 FMMI-FQNC

Flight info

Callsign OAL929
Flight time 1h 28m
Altitude 38000
Route IKRAM DOBAR TIDAL GADNO
Aircraft B738/M-V/N

Departure

Time 2026-05-05 08:04
Airport Ivato International Airport (FMMI)

Arrival

Time 2026-05-05 09:33
Airport Nacala International Airport (FQNC)
Time Latitude Longitude Altitude Speed Heading
2026-05-05 07:56 -18.79774 47.46971 4188 ft 0 kts 325°
2026-05-05 08:01 -18.79737 47.46911 4190 ft 19 kts 297°
2026-05-05 08:02 -18.79679 47.46776 4193 ft 20 kts 294°
2026-05-05 08:02 -18.79624 47.46645 4197 ft 19 kts 294°
2026-05-05 08:02 -18.79571 47.46518 4201 ft 19 kts 294°
2026-05-05 08:02 -18.79521 47.46461 4203 ft 0 kts
2026-05-05 08:03 -18.79517 47.46462 4203 ft 6 kts
2026-05-05 08:03 -18.79500 47.46616 4199 ft 57 kts 99°
2026-05-05 08:04 -18.79604 47.47305 4181 ft 131 kts 99°
2026-05-05 08:04 -18.79777 47.48464 4317 ft 176 kts 99°
2026-05-05 08:04 -18.79988 47.49699 5250 ft 178 kts 111°
2026-05-05 08:04 -18.80840 47.50582 6085 ft 181 kts 161°
2026-05-05 08:05 -18.82181 47.50513 6554 ft 215 kts 201°
2026-05-05 08:05 -18.83307 47.49349 6746 ft 247 kts 244°
2026-05-05 08:05 -18.83544 47.47497 6913 ft 277 kts 281°
2026-05-05 08:05 -18.82639 47.45653 7317 ft 293 kts 316°
2026-05-05 08:06 -18.81079 47.44269 8154 ft 293 kts 321°
2026-05-05 08:06 -18.79845 47.42558 8822 ft 299 kts 290°
2026-05-05 08:06 -18.79242 47.40459 9648 ft 301 kts 285°
2026-05-05 08:06 -18.78629 47.38338 10395 ft 304 kts 287°
2026-05-05 08:07 -18.77970 47.36157 10745 ft 323 kts 287°
2026-05-05 08:07 -18.77254 47.33822 10901 ft 346 kts 287°
2026-05-05 08:07 -18.76485 47.31332 11051 ft 366 kts 287°
2026-05-05 08:07 -18.75677 47.28724 11348 ft 380 kts 287°
2026-05-05 08:08 -18.74847 47.26058 11880 ft 385 kts 287°
2026-05-05 08:08 -18.74012 47.23373 12521 ft 386 kts 287°
2026-05-05 08:08 -18.73173 47.20677 13124 ft 388 kts 287°
2026-05-05 08:08 -18.72328 47.17960 13683 ft 391 kts 287°
2026-05-05 08:09 -18.71475 47.15222 14201 ft 394 kts 287°
2026-05-05 08:09 -18.70618 47.12469 14683 ft 397 kts 287°
2026-05-05 08:09 -18.69754 47.09693 15132 ft 400 kts 287°
2026-05-05 08:09 -18.68880 47.06892 15596 ft 403 kts 287°
2026-05-05 08:10 -18.68020 47.04065 16051 ft 406 kts 285°
2026-05-05 08:10 -18.67244 47.01188 16492 ft 410 kts 284°
2026-05-05 08:10 -18.66503 46.98277 16936 ft 413 kts 283°
2026-05-05 08:10 -18.65769 46.95348 17364 ft 416 kts 283°
2026-05-05 08:11 -18.65024 46.92386 17821 ft 419 kts 284°
2026-05-05 08:11 -18.64261 46.89386 18268 ft 422 kts 284°
2026-05-05 08:11 -18.63502 46.86426 18653 ft 425 kts 284°
2026-05-05 08:11 -18.62725 46.83416 19023 ft 427 kts 284°
2026-05-05 08:12 -18.61932 46.80352 19450 ft 428 kts 284°
2026-05-05 08:12 -18.61146 46.77327 19862 ft 430 kts 284°
2026-05-05 08:12 -18.60363 46.74314 20248 ft 432 kts 284°
2026-05-05 08:12 -18.59565 46.71247 20640 ft 434 kts 284°
2026-05-05 08:13 -18.58767 46.68182 21039 ft 435 kts 284°
2026-05-05 08:13 -18.57960 46.65077 21445 ft 436 kts 284°
2026-05-05 08:13 -18.57153 46.61977 21819 ft 438 kts 284°
2026-05-05 08:13 -18.56348 46.58884 22182 ft 440 kts 284°
2026-05-05 08:14 -18.55538 46.55776 22548 ft 441 kts 284°
2026-05-05 08:14 -18.54725 46.52661 22909 ft 443 kts 284°
2026-05-05 08:14 -18.53907 46.49532 23257 ft 444 kts 284°
2026-05-05 08:14 -18.53086 46.46393 23589 ft 446 kts 284°
2026-05-05 08:15 -18.52260 46.43238 23877 ft 449 kts 284°
2026-05-05 08:15 -18.51420 46.40032 24160 ft 450 kts 284°
2026-05-05 08:15 -18.50588 46.36855 24468 ft 450 kts 284°
2026-05-05 08:15 -18.49752 46.33669 24775 ft 451 kts 284°
2026-05-05 08:16 -18.48916 46.30486 25053 ft 452 kts 284°
2026-05-05 08:16 -18.48078 46.27293 25341 ft 453 kts 284°
2026-05-05 08:16 -18.47237 46.24092 25618 ft 454 kts 284°
2026-05-05 08:16 -18.46394 46.20889 25885 ft 455 kts 284°
2026-05-05 08:17 -18.45548 46.17673 26158 ft 456 kts 284°
2026-05-05 08:17 -18.44701 46.14454 26422 ft 457 kts 283°
2026-05-05 08:17 -18.43851 46.11229 26690 ft 457 kts 283°
2026-05-05 08:17 -18.43000 46.08003 26955 ft 458 kts 283°
2026-05-05 08:18 -18.42156 46.04806 27204 ft 459 kts 283°
2026-05-05 08:18 -18.41301 46.01568 27446 ft 460 kts 283°
2026-05-05 08:18 -18.40443 45.98322 27685 ft 461 kts 283°
2026-05-05 08:18 -18.39582 45.95067 27925 ft 462 kts 283°
2026-05-05 08:19 -18.38719 45.91809 28138 ft 463 kts 283°
2026-05-05 08:19 -18.37854 45.88541 28348 ft 464 kts 283°
2026-05-05 08:19 -18.36985 45.85264 28554 ft 465 kts 283°
2026-05-05 08:19 -18.36115 45.81986 28803 ft 465 kts 283°
2026-05-05 08:20 -18.35248 45.78721 29145 ft 463 kts 283°
2026-05-05 08:20 -18.34383 45.75468 29521 ft 460 kts 283°
2026-05-05 08:20 -18.33522 45.72231 29891 ft 458 kts 283°
2026-05-05 08:20 -18.32664 45.69009 30224 ft 456 kts 283°
2026-05-05 08:21 -18.31810 45.65802 30481 ft 455 kts 283°
2026-05-05 08:21 -18.30954 45.62591 30728 ft 455 kts 283°
2026-05-05 08:21 -18.30102 45.59394 30992 ft 454 kts 283°
2026-05-05 08:21 -18.29248 45.56195 31261 ft 453 kts 283°
2026-05-05 08:22 -18.28408 45.53048 31516 ft 453 kts 283°
2026-05-05 08:22 -18.27538 45.49793 31778 ft 452 kts 284°
2026-05-05 08:22 -18.26685 45.46601 32051 ft 451 kts 284°
2026-05-05 08:22 -18.25845 45.43463 32324 ft 450 kts 284°
2026-05-05 08:23 -18.24986 45.40255 32600 ft 450 kts 284°
2026-05-05 08:23 -18.24143 45.37112 32855 ft 449 kts 284°
2026-05-05 08:23 -18.23298 45.33958 33134 ft 449 kts 284°
2026-05-05 08:23 -18.22453 45.30810 33420 ft 448 kts 284°
2026-05-05 08:24 -18.21609 45.27668 33701 ft 447 kts 284°
2026-05-05 08:24 -18.20760 45.24509 33949 ft 447 kts 284°
2026-05-05 08:24 -18.19917 45.21372 34179 ft 447 kts 284°
2026-05-05 08:24 -18.19074 45.18241 34411 ft 446 kts 284°
2026-05-05 08:25 -18.18219 45.15068 34660 ft 444 kts 284°
2026-05-05 08:25 -18.17388 45.11984 34877 ft 444 kts 284°
2026-05-05 08:25 -18.16544 45.08853 35088 ft 443 kts 284°
2026-05-05 08:25 -18.15976 45.06748 35236 ft 443 kts 284°
2026-05-05 08:26 -18.15144 45.03663 35462 ft 442 kts 284°
2026-05-05 08:26 -18.14028 44.99533 35749 ft 441 kts 284°
2026-05-05 08:26 -18.13470 44.97471 35888 ft 440 kts 284°
2026-05-05 08:26 -18.12630 44.94370 36093 ft 440 kts 284°
2026-05-05 08:27 -18.11790 44.91270 36303 ft 439 kts 284°
2026-05-05 08:27 -18.10950 44.88175 36502 ft 438 kts 284°
2026-05-05 08:27 -18.10125 44.85137 36715 ft 438 kts 284°
2026-05-05 08:27 -18.09293 44.82070 36915 ft 437 kts 284°
2026-05-05 08:28 -18.08448 44.78962 37108 ft 436 kts 284°
2026-05-05 08:28 -18.07617 44.75904 37273 ft 436 kts 284°
2026-05-05 08:28 -18.06784 44.72841 37436 ft 436 kts 284°
2026-05-05 08:28 -18.05952 44.69785 37629 ft 436 kts 284°
2026-05-05 08:29 -18.05117 44.66718 37809 ft 435 kts 284°
2026-05-05 08:29 -18.04286 44.63670 37973 ft 434 kts 284°
2026-05-05 08:30 -18.01775 44.54465 38034 ft 437 kts 284°
2026-05-05 08:30 -18.00108 44.48367 38042 ft 434 kts 284°
2026-05-05 08:31 -17.98444 44.42290 38029 ft 433 kts 284°
2026-05-05 08:31 -17.96779 44.36214 38035 ft 431 kts 284°
2026-05-05 08:32 -17.95118 44.30163 38031 ft 431 kts 284°
2026-05-05 08:32 -17.93457 44.24117 38033 ft 431 kts 284°
2026-05-05 08:33 -17.91800 44.18093 38033 ft 432 kts 284°
2026-05-05 08:33 -17.90131 44.12035 38039 ft 433 kts 284°
2026-05-05 08:34 -17.88443 44.05917 38035 ft 435 kts 285°
2026-05-05 08:34 -17.86758 43.99819 38037 ft 436 kts 285°
2026-05-05 08:35 -17.85064 43.93694 38040 ft 438 kts 285°
2026-05-05 08:35 -17.83363 43.87551 38043 ft 439 kts 285°
2026-05-05 08:36 -17.81654 43.81392 38036 ft 440 kts 285°
2026-05-05 08:36 -17.79944 43.75233 38039 ft 440 kts 285°
2026-05-05 08:37 -17.78228 43.69064 38039 ft 440 kts 285°
2026-05-05 08:37 -17.76512 43.62899 38038 ft 440 kts 285°
2026-05-05 08:38 -17.74792 43.56732 38040 ft 440 kts 285°
2026-05-05 08:38 -17.73075 43.50580 38039 ft 440 kts 285°
2026-05-05 08:39 -17.71366 43.44467 38038 ft 439 kts 285°
2026-05-05 08:39 -17.69636 43.38287 38039 ft 439 kts 285°
2026-05-05 08:40 -17.67928 43.32191 38048 ft 438 kts 285°
2026-05-05 08:40 -17.66207 43.26061 38042 ft 438 kts 285°
2026-05-05 08:41 -17.64486 43.19933 38041 ft 438 kts 285°
2026-05-05 08:41 -17.62764 43.13812 38042 ft 438 kts 285°
2026-05-05 08:42 -17.61037 43.07682 38043 ft 438 kts 285°
2026-05-05 08:42 -17.59308 43.01554 38041 ft 438 kts 285°
2026-05-05 08:43 -17.57576 42.95423 38047 ft 439 kts 285°
2026-05-05 08:43 -17.55840 42.89284 38046 ft 439 kts 285°
2026-05-05 08:44 -17.54102 42.83145 38041 ft 440 kts 285°
2026-05-05 08:44 -17.52358 42.76993 38043 ft 440 kts 285°
2026-05-05 08:45 -17.50611 42.70839 38047 ft 441 kts 285°
2026-05-05 08:45 -17.48860 42.64679 38041 ft 442 kts 285°
2026-05-05 08:46 -17.47105 42.58514 38043 ft 442 kts 285°
2026-05-05 08:46 -17.45345 42.52337 38045 ft 442 kts 285°
2026-05-05 08:47 -17.43583 42.46162 38048 ft 443 kts 285°
2026-05-05 08:47 -17.41817 42.39981 38046 ft 443 kts 285°
2026-05-05 08:48 -17.40049 42.33799 38046 ft 443 kts 285°
2026-05-05 08:48 -17.38279 42.27621 38045 ft 443 kts 285°
2026-05-05 08:49 -17.36506 42.21439 38045 ft 443 kts 285°
2026-05-05 08:49 -17.34731 42.15257 38048 ft 443 kts 285°
2026-05-05 08:50 -17.32954 42.09075 38047 ft 444 kts 285°
2026-05-05 08:50 -17.31174 42.02894 38046 ft 444 kts 285°
2026-05-05 08:51 -17.29403 41.96746 38047 ft 444 kts 285°
2026-05-05 08:51 -17.27619 41.90563 38044 ft 444 kts 285°
2026-05-05 08:52 -17.25833 41.84382 38051 ft 444 kts 285°
2026-05-05 08:52 -17.24046 41.78202 38048 ft 444 kts 285°
2026-05-05 08:53 -17.21730 41.72237 38041 ft 447 kts 307°
2026-05-05 08:53 -17.19545 41.69918 38042 ft 451 kts 321°
2026-05-05 08:53 -17.16853 41.68226 38047 ft 455 kts 336°
2026-05-05 08:54 -17.10833 41.66121 38051 ft 457 kts 340°
2026-05-05 08:54 -17.04757 41.64106 38049 ft 458 kts 340°
2026-05-05 08:55 -16.98688 41.62051 38047 ft 459 kts 339°
2026-05-05 08:55 -16.92607 41.59959 38046 ft 460 kts 339°
2026-05-05 08:56 -16.86520 41.57856 38046 ft 461 kts 339°
2026-05-05 08:56 -16.80421 41.55749 38046 ft 462 kts 339°
2026-05-05 08:57 -16.74326 41.53647 38046 ft 462 kts 339°
2026-05-05 08:57 -16.68223 41.51544 38045 ft 461 kts 339°
2026-05-05 08:58 -16.62134 41.49447 38041 ft 461 kts 340°
2026-05-05 08:58 -16.56085 41.47366 38046 ft 460 kts 340°
2026-05-05 08:59 -16.50010 41.45277 38045 ft 459 kts 340°
2026-05-05 08:59 -16.43920 41.43183 37601 ft 466 kts 340°
2026-05-05 08:59 -16.40819 41.42117 37088 ft 464 kts 340°
2026-05-05 09:00 -16.37786 41.41076 36484 ft 464 kts 340°
2026-05-05 09:00 -16.34723 41.40025 35910 ft 463 kts 340°
2026-05-05 09:00 -16.31662 41.38975 35245 ft 464 kts 340°
2026-05-05 09:00 -16.28585 41.37919 34557 ft 467 kts 340°
2026-05-05 09:01 -16.25494 41.36859 33838 ft 469 kts 340°
2026-05-05 09:01 -16.22386 41.35794 33063 ft 471 kts 340°
2026-05-05 09:01 -16.19272 41.34727 32335 ft 472 kts 340°
2026-05-05 09:01 -16.16151 41.33658 31590 ft 473 kts 340°
2026-05-05 09:02 -16.13023 41.32587 30817 ft 474 kts 340°
2026-05-05 09:02 -16.09883 41.31512 30195 ft 473 kts 340°
2026-05-05 09:02 -16.06770 41.30447 29509 ft 470 kts 340°
2026-05-05 09:02 -16.03680 41.29390 29003 ft 464 kts 340°
2026-05-05 09:03 -16.00628 41.28347 28377 ft 461 kts 340°
2026-05-05 09:03 -15.97595 41.27310 27839 ft 456 kts 341°
2026-05-05 09:03 -15.94616 41.26292 27278 ft 453 kts 341°
2026-05-05 09:03 -15.91644 41.25276 26737 ft 450 kts 341°
2026-05-05 09:04 -15.88641 41.24250 26189 ft 447 kts 341°
2026-05-05 09:04 -15.85703 41.23247 25629 ft 445 kts 341°
2026-05-05 09:04 -15.82776 41.22247 25081 ft 443 kts 342°
2026-05-05 09:04 -15.79842 41.21245 24524 ft 442 kts 342°
2026-05-05 09:05 -15.76963 41.20263 23992 ft 440 kts 342°
2026-05-05 09:05 -15.74063 41.19274 23402 ft 440 kts 342°
2026-05-05 09:05 -15.71122 41.18272 22794 ft 437 kts 342°
2026-05-05 09:05 -15.68248 41.17292 22244 ft 434 kts 343°
2026-05-05 09:06 -15.65397 41.16321 21698 ft 431 kts 343°
2026-05-05 09:06 -15.62566 41.15356 21168 ft 428 kts 343°
2026-05-05 09:06 -15.59744 41.14395 20638 ft 425 kts 343°
2026-05-05 09:06 -15.56949 41.13443 20105 ft 422 kts 343°
2026-05-05 09:07 -15.54173 41.12499 19569 ft 420 kts 343°
2026-05-05 09:07 -15.51422 41.11562 19042 ft 418 kts 343°
2026-05-05 09:07 -15.48654 41.10621 18514 ft 416 kts 343°
2026-05-05 09:07 -15.45916 41.09690 17927 ft 415 kts 343°
2026-05-05 09:08 -15.43189 41.08763 17385 ft 411 kts 343°
2026-05-05 09:08 -15.40449 41.07831 16850 ft 408 kts 343°
2026-05-05 09:08 -15.37770 41.06921 16336 ft 405 kts 343°
2026-05-05 09:08 -15.35111 41.06018 15826 ft 402 kts 343°
2026-05-05 09:09 -15.32467 41.05120 15307 ft 399 kts 343°
2026-05-05 09:09 -15.29829 41.04224 14787 ft 397 kts 344°
2026-05-05 09:09 -15.27218 41.03338 14284 ft 395 kts 344°
2026-05-05 09:09 -15.24616 41.02455 13755 ft 393 kts 344°
2026-05-05 09:10 -15.22030 41.01578 13211 ft 391 kts 344°
2026-05-05 09:10 -15.19435 41.00698 12693 ft 388 kts 343°
2026-05-05 09:10 -15.16885 40.99833 12189 ft 385 kts 344°
2026-05-05 09:10 -15.14352 40.98975 11691 ft 382 kts 343°
2026-05-05 09:11 -15.11842 40.98124 11202 ft 379 kts 343°
2026-05-05 09:11 -15.09357 40.97282 10922 ft 371 kts 343°
2026-05-05 09:11 -15.06939 40.96461 10715 ft 361 kts 344°
2026-05-05 09:11 -15.04588 40.95664 10588 ft 350 kts 344°
2026-05-05 09:12 -15.02307 40.94891 10431 ft 341 kts 344°
2026-05-05 09:12 -15.00087 40.94139 10297 ft 332 kts 344°
2026-05-05 09:12 -14.97920 40.93406 10157 ft 324 kts 344°
2026-05-05 09:12 -14.96485 40.92920 10067 ft 319 kts 344°
2026-05-05 09:13 -14.94403 40.92216 9988 ft 309 kts 344°
2026-05-05 09:13 -14.92414 40.91543 9987 ft 298 kts 344°
2026-05-05 09:13 -14.90468 40.90884 9938 ft 289 kts 344°
2026-05-05 09:13 -14.88587 40.90248 9844 ft 282 kts 345°
2026-05-05 09:14 -14.86733 40.89622 9621 ft 280 kts 345°
2026-05-05 09:14 -14.84858 40.88990 9382 ft 279 kts 345°
2026-05-05 09:14 -14.83022 40.88370 9161 ft 277 kts 345°
2026-05-05 09:14 -14.81199 40.87755 8942 ft 275 kts 345°
2026-05-05 09:15 -14.79389 40.87144 8748 ft 273 kts 345°
2026-05-05 09:15 -14.77582 40.86534 8522 ft 272 kts 345°
2026-05-05 09:15 -14.75813 40.85936 8301 ft 270 kts 345°
2026-05-05 09:15 -14.74008 40.85327 8100 ft 268 kts 345°
2026-05-05 09:16 -14.72243 40.84731 7894 ft 267 kts 345°
2026-05-05 09:16 -14.70484 40.84138 7670 ft 266 kts 345°
2026-05-05 09:16 -14.68735 40.83548 7473 ft 264 kts 345°
2026-05-05 09:16 -14.66995 40.82961 7278 ft 263 kts 345°
2026-05-05 09:17 -14.65257 40.82374 7073 ft 262 kts 345°
2026-05-05 09:17 -14.63541 40.81796 6865 ft 260 kts 345°
2026-05-05 09:17 -14.61812 40.81213 6670 ft 259 kts 345°
2026-05-05 09:17 -14.60100 40.80635 6468 ft 258 kts 345°
2026-05-05 09:18 -14.58400 40.80062 6266 ft 256 kts 345°
2026-05-05 09:18 -14.56708 40.79492 6037 ft 257 kts 345°
2026-05-05 09:18 -14.55001 40.78917 5780 ft 258 kts 345°
2026-05-05 09:18 -14.53318 40.78350 5597 ft 256 kts 344°
2026-05-05 09:19 -14.51632 40.77781 5612 ft 246 kts 344°
2026-05-05 09:19 -14.50044 40.77245 5543 ft 241 kts 344°
2026-05-05 09:19 -14.48464 40.76713 5485 ft 235 kts 344°
2026-05-05 09:19 -14.46934 40.76198 5461 ft 228 kts 345°
2026-05-05 09:20 -14.45448 40.75697 5338 ft 225 kts 345°
2026-05-05 09:20 -14.43955 40.75180 5129 ft 227 kts 339°
2026-05-05 09:20 -14.42723 40.74142 4837 ft 237 kts 300°
2026-05-05 09:20 -14.42432 40.72493 4683 ft 237 kts 258°
2026-05-05 09:21 -14.43237 40.71051 4449 ft 237 kts 216°
2026-05-05 09:21 -14.44740 40.70512 4215 ft 230 kts 175°
2026-05-05 09:21 -14.46309 40.70657 4080 ft 226 kts 175°
2026-05-05 09:21 -14.47894 40.70650 3850 ft 228 kts 180°
2026-05-05 09:22 -14.49471 40.70546 3661 ft 228 kts 182°
2026-05-05 09:22 -14.51040 40.70416 3496 ft 226 kts 182°
2026-05-05 09:22 -14.52602 40.70290 3360 ft 224 kts 182°
2026-05-05 09:22 -14.54141 40.70175 3200 ft 222 kts 182°
2026-05-05 09:23 -14.55670 40.70067 3042 ft 220 kts 181°
2026-05-05 09:23 -14.57188 40.69957 2893 ft 218 kts 182°
2026-05-05 09:23 -14.58695 40.69849 2761 ft 216 kts 182°
2026-05-05 09:23 -14.60196 40.69746 2635 ft 215 kts 183°
2026-05-05 09:24 -14.61662 40.69647 2500 ft 213 kts 182°
2026-05-05 09:24 -14.63134 40.69549 2344 ft 212 kts 181°
2026-05-05 09:24 -14.64601 40.69451 2175 ft 211 kts 181°
2026-05-05 09:24 -14.66080 40.69354 2031 ft 210 kts 182°
2026-05-05 09:25 -14.67529 40.69258 1900 ft 209 kts 184°
2026-05-05 09:25 -14.68976 40.69169 1790 ft 208 kts 183°
2026-05-05 09:25 -14.70392 40.69076 1657 ft 206 kts 181°
2026-05-05 09:25 -14.71784 40.68991 1512 ft 199 kts 181°
2026-05-05 09:26 -14.73132 40.68912 1425 ft 189 kts 184°
2026-05-05 09:26 -14.74425 40.68866 1308 ft 194 kts 175°
2026-05-05 09:26 -14.75665 40.69377 1195 ft 192 kts 134°
2026-05-05 09:26 -14.76108 40.70623 1190 ft 194 kts 86°
2026-05-05 09:27 -14.75494 40.71862 1197 ft 203 kts 40°
2026-05-05 09:27 -14.74188 40.72306 1194 ft 199 kts 354°
2026-05-05 09:27 -14.72960 40.71809 1251 ft 187 kts 330°
2026-05-05 09:27 -14.71753 40.71276 1191 ft 185 kts 338°
2026-05-05 09:28 -14.70573 40.70764 1202 ft 185 kts 337°
2026-05-05 09:28 -14.69379 40.70241 1200 ft 187 kts 337°
2026-05-05 09:28 -14.68109 40.69984 1180 ft 188 kts
2026-05-05 09:28 -14.66820 40.70070 1187 ft 189 kts
2026-05-05 09:29 -14.65534 40.70085 1204 ft 186 kts
2026-05-05 09:29 -14.64261 40.70099 1215 ft 169 kts
2026-05-05 09:29 -14.63140 40.70129 1231 ft 160 kts
2026-05-05 09:29 -14.62049 40.70209 1216 ft 156 kts
2026-05-05 09:30 -14.60963 40.70292 1222 ft 157 kts
2026-05-05 09:30 -14.59870 40.70367 1199 ft 159 kts
2026-05-05 09:30 -14.58763 40.70406 1221 ft 158 kts
2026-05-05 09:30 -14.57658 40.70452 1213 ft 159 kts
2026-05-05 09:31 -14.56556 40.70532 1196 ft 159 kts
2026-05-05 09:31 -14.55460 40.70613 1201 ft 157 kts
2026-05-05 09:31 -14.54386 40.70702 1204 ft 154 kts
2026-05-05 09:31 -14.53328 40.70806 1207 ft 151 kts
2026-05-05 09:32 -14.52218 40.70920 873 ft 171 kts
2026-05-05 09:32 -14.51094 40.71018 629 ft 154 kts
2026-05-05 09:32 -14.50038 40.71121 415 ft 145 kts
2026-05-05 09:32 -14.49188 40.71196 383 ft 66 kts
2026-05-05 09:33 -14.49083 40.71159 381 ft 13 kts 246°
2026-05-05 09:33 -14.49172 40.71114 383 ft 16 kts 205°
2026-05-05 09:33 -14.49215 40.71087 385 ft 0 kts 213°